Regional Weather Roundup
Issued by NWS Upton, NY

Current Version | Previous Version | Text Only | Print | Product List | Glossary On
Versions: 1 2 3 4 5 6 7 8 9 10 11 12 13 14 15 16 17 18 19 20 21 22 23 24 25 26 27
000
ASUS41 KOKX 240105
RWROKX
REGIONAL WEATHER ROUNDUP
NATIONAL WEATHER SERVICE NEW YORK NY
900 PM EDT THU OCT 23 2014

NOTE: "FAIR" INDICATES FEW OR NO CLOUDS BELOW 12,000 FEET WITH NO
SIGNIFICANT WEATHER AND/OR OBSTRUCTIONS TO VISIBILITY.

NYZ071-072-176-178-NJZ106-104-240200-
NEW YORK CITY METRO AREA


CITY           SKY/WX    TMP DP  RH WIND       PRES   REMARKS
CENTRAL PARK   CLOUDY    52  46  80 VRB5      29.80R
LAGUARDIA APRT CLOUDY    53  48  83 NW13      29.76R
KENNEDY INTL   LGT RAIN  53  46  77 NW18G29   29.75S
NEWARK/LIBERTY MOCLDY    53  44  71 NW13      29.77F
BRNX BOT. GARD   N/A     52  46  82 W6        29.77S
TETERBORO      CLOUDY    53  45  74 N7        29.77S
$$

NYZ177-179-078>081-240200-
LONG ISLAND NEW YORK

CITY           SKY/WX    TMP DP  RH WIND       PRES   REMARKS
FARMINGDALE    CLOUDY    53  44  71 N14G23    29.73R
ISLIP          LGT RAIN  51  46  83 N20G26    29.69R
SHIRLEY        CLOUDY    52  47  83 N13G22    29.71R
WESTHAMPTON    LGT RAIN  54  49  83 N12G23    29.69R
MONTAUK POINT    N/A     55  52  89 N16G25    29.63R
$$

NYZ052-065-067-240200-
HUDSON VALLEY

CITY           SKY/WX    TMP DP  RH WIND       PRES   REMARKS
WHITE PLAINS   DRIZZLE   49  45  86 NW20G28   29.75R FOG
NEWBURGH       NOT AVBL
MONTGOMERY     CLOUDY    50  48  93 CALM      29.80R
POUGHKEEPSIE   CLOUDY    51  43  74 N15G22    29.80S
ALBANY         LGT RAIN  48  45  89 N9        29.86R
$$

NJZ001-105-106-008-010-013-015-019>022-104-240200-
NEW JERSEY

CITY           SKY/WX    TMP DP  RH WIND       PRES   REMARKS
NEWARK/LIBERTY MOCLDY    53  44  71 NW13      29.77F
TETERBORO      CLOUDY    53  45  74 N7        29.77S
CALDWELL       CLOUDY    52  43  71 NW7       29.79S
MORRISTOWN     NOT AVBL
SOMERVILLE     CLOUDY    54  43  66 N12G23    29.78S
SUSSEX         CLOUDY    53  43  68 NW8       29.82R
ANDOVER          N/A     50  43  77 N9G25     29.82R
TRENTON        CLOUDY    52  43  71 NW13      29.82R
MILLVILLE      CLOUDY    53  44  71 NW10      29.83R
ATLANTIC CITY  CLOUDY    53  45  74 NW16      29.80R
WRIGHTSTOWN    CLOUDY    53  45  74 W13       29.79R
TOMS RIVER     CLOUDY    52  45  76 NW3       29.80R
BELMAR         CLOUDY    52  43  71 NW10      29.78R
$$

PAZ047>061-062-071-240200-
EASTERN PENNSYLVANIA

CITY           SKY/WX    TMP DP  RH WIND       PRES   REMARKS
PHILADELPHIA   CLOUDY    55  43  63 N21       29.84S
ALLENTOWN      CLOUDY    53  42  66 NW12G23   29.85S
SCRANTON       LGT RAIN  50  43  77 N7        29.90R
$$

CTZ002-004>006-009-010-012-RIZ004-006-007-MAZ004-011-015-240200-
SOUTHERN NEW ENGLAND
 IN CT

CITY           SKY/WX    TMP DP  RH WIND       PRES   REMARKS
BRADLEY INTL   LGT RAIN  52  47  83 N14       29.72R
HARTFORD       CLOUDY    53  46  77 N17G23    29.71S
DANBURY        LGT RAIN  48  42  80 N9        29.77S
WTRBRY/OXFORD  CLOUDY    46  39  76 N13       29.74R
BRIDGEPORT     CLOUDY    51  44  77 N16G24    29.71R
MERIDEN        CLOUDY    52  47  83 NW10      29.72R
NEW HAVEN      CLOUDY    54  46  74 N15G23    29.70R
CHESTER        LGT RAIN  50  48  93 N16G24    29.68R
GROTON         CLOUDY    52  50  93 N22G31    29.63R
WILLIMANTIC    CLOUDY    53  48  83 N13G23    29.68S

 IN RI

CITY           SKY/WX    TMP DP  RH WIND       PRES   REMARKS
PROVIDENCE     CLOUDY    52  50  93 N18G28    29.64R
BLOCK ISLAND   CLOUDY    54  48  82 N23G32    29.59R
WESTERLY       LGT RAIN  53  50  89 N14G24    29.63R

 IN MA

CITY           SKY/WX    TMP DP  RH WIND       PRES   REMARKS
BOSTON         LGT RAIN  50  49  96 N15G29    29.66R
WORCESTER      LGT RAIN  48  46  93 N15G25    29.69S FOG
WESTFIELD      LGT RAIN  51  47  86 N12       29.73S
PROVINCETOWN   CLOUDY    55   1  11 NE20G28   29.58S
NANTUCKET      CLOUDY    59  57  93 N16       29.50S
$$

ANZ330-335-338-340-345-350-353-355-240200-
COASTAL MARINE OBSERVATIONS


STATION/POSITION TIME  SKY/WX   TEMP    WIND        PRES    VSBY  WAVE
                                AIR SEA DIR/SP/G                  HT/PER
                 (UTC)          (F)     (DEG/KT/KT) (MB)    (MI)  (FT/S)
NY HARB ENTRANCE NOT AVBL
4S FIRE IS       0100               63                N/A           4/ 9
20S FIRE ISLAND  0100            55 64  340/ 25/ 33 1004.9          7/ 6
23SW MTP         0100                                 N/A           6/ 6
HUDSON CANYON    0100            57 66  330/ 25/ 31 1003.7         10/ 7
EXECUTION ROCKS  0100            54 62  320/ 17/ 25   N/A
WESTERN LI SOUND 0100            54     340/ 19/ 25   N/A           2/ 3
CENTRAL LI SOUND 0000            55 63  350/ 21/ 29   N/A           3/ 4
EASTERN LI SOUND 0000            56 63  360/ 19/ 27   N/A
ROBBINS REEF     0100            53     330/ 18/ 22 1006.6
$$


>>>>>>>>>>>>>>>>>>>>>>>>>>>> KEY <<<<<<<<<<<<<<<<<<<<<<<<<<<
>                                                          <
>     SKY/WX - SKY CONDITION/PRESENT WEATHER               <
>     TMP    - TEMPERATURE IN FAHRENHEIT                   <
>     DP     - DEWPOINT IN FAHRENHEIT                      <
>     RH     - RELATIVE HUMIDITY IN PERCENT                <
>     WIND   - DIRECTION AND SPEED IN MPH                  <
>     PRES   - MEAN SEA LEVEL PRESSURE IN INCHES OF HG     <
>     WCI    - WIND CHILL INDEX                            <
>     VSB    - VISIBILITY IN MILES                         <
>     HX     - HEAT INDEX                                  <
>     TC     - TEMPERATURE IN CELSIUS                      <
>     VRB    - VARIABLE WIND DIRECTION                     <
>                                                          <
>>>>>>>>>>>>>>>>>>>>>>>>>>>> KEY <<<<<<<<<<<<<<<<<<<<<<<<<<<





USA.gov is the U.S. government's official web portal to all federal, state and local government web resources and services.